Location: Central Falls
(41.8900°N, 71.3929°W)
Time: 12:31:14
(UTC+00:00)

A-11 Canister half - Pass Details

Date: 12 December 2023
Orbit: 1512 x 1687 km, 47.2° (Epoch: 20 February)

Event Time Altitude Azimuth Distance (km) Brightness Sun altitude
Rises 11:26:40 0° 290° (WNW) 4,883 - -6.9°
Exits shadow 11:29:14 - 281° (W) 4,304 10.7 -6.5°
Reaches altitude 10° 11:31:16 10° 272° (W) 3,917 10.6 -6.2°
Maximum altitude 11:37:01 17° 236° (SW) 3,398 10.5 -5.2°
Drops below altitude 10° 11:42:50 10° 200° (SSW) 3,941 11.3 -4.2°
Sets 11:47:32 0° 182° (S) 4,926 12.0 -3.5°
